Regional Weather Roundup
Issued by NWS

Home | Current Version | Previous Version | Text Only | Print | Product List | Glossary On
Versions: 1 2 3 4 5 6 7 8 9 10 11 12 13 14 15 16 17 18 19 20 21 22 23 24 25 26 27 28 29 30 31 32 33 34 35 36 37 38 39 40 41 42 43 44 45 46 47 48 49 50
000
ASUS44 KMEG 271910
RWRTN
TENNESSEE HOURLY STATE WEATHER ROUNDUP
NATIONAL WEATHER SERVICE MEMPHIS TN
200 PM CDT MON MAR 27 2017

TNZ002-004-019-021-049-052-054-088>092-272000-
WEST TENNESSEE

CITY           SKY/WX    TMP DP  RH WIND       PRES   REMARKS
MEMPHIS INTL   PTSUNNY   77  63  61 SW17G33   29.81F
JACKSON        CLOUDY    71  63  75 S14G24    29.84F
DYERSBURG      TSTM      59  57  93 CALM      29.83F
SOMERVILLE     MOSUNNY   72  63  73 S8G16     29.82F
BOLIVAR        MOSUNNY   72  59  64 S10G18    29.84F
PARIS          CLOUDY    64  54  68 NW18G35   29.86R
HUNTINGDON     CLOUDY    68  63  83 S10G31    29.82S HAZE
SAVANNAH       PTSUNNY   70  63  78 NW7       29.88R
$$

TNZ008-025-027-028-033-062-065-066-272000-
NORTH MIDDLE TENNESSEE

CITY           SKY/WX    TMP DP  RH WIND       PRES   REMARKS
NASHVILLE      CLOUDY    76  60  57 S20G25    29.89F
PORTLAND       MOSUNNY   70  64  83 S10       29.88F
CLARKSVILLE    PTSUNNY   75  57  53 SW13G28   29.84F
SMYRNA         CLOUDY    75  60  59 S13       29.90F
COOKEVILLE     MOSUNNY   73  59  60 S13       29.92F
GALLATIN       MOSUNNY   75  61  60 S13G20    29.91F
CROSSVILLE     MOSUNNY   69  54  58 VRB6      29.98F
$$

TNZ061-075-076-078-094-096-097-272000-
SOUTH MIDDLE TENNESSEE

CITY           SKY/WX    TMP DP  RH WIND       PRES   REMARKS
FAYETTEVILLE   MOSUNNY   75  61  60 S14       29.94F
TULLAHOMA      SUNNY     73  59  60 S9        29.95F
WINCHESTER     SUNNY     75  57  53 S10       29.94F
MCMINNVILLE    SUNNY     73  59  60 S8        29.94F
COLUMBIA       MOSUNNY   75  63  64 S17       29.87F
SHELBYVILLE    PTSUNNY   75  63  64 S15       29.93F
$$

TNZ017-018-042-046-047-272000-
NORTHEAST TENNESSEE

CITY           SKY/WX    TMP DP  RH WIND       PRES   REMARKS
TRI CITIES     CLOUDY    75  49  39 SW14      30.00F
ELIZABETHTON   CLOUDY    75  48  38 SW7       29.99F
$$

TNZ012-013-036-069-073-074-272000-
CENTRAL EAST TENNESSEE

CITY           SKY/WX    TMP DP  RH WIND       PRES   REMARKS
KNOXVILLE      CLOUDY    74  57  55 SW17G25   29.97F
OAK RIDGE      CLOUDY    76  56  49 SW8G20    29.98F
DOWNTOWN KNOXV MOSUNNY   75  59  57 W14G23    29.98F
GATLINBURG     MOSUNNY   75  54  46 SW5       29.97F
MORRISTOWN     PTSUNNY   72  61  68 W6G13     29.99F
JACKSBORO      MOSUNNY   72  57  60 S9G17     30.00F
$$

TNZ083-085-099-272000-
SOUTHEAST TENNESSEE

CITY           SKY/WX    TMP DP  RH WIND       PRES   REMARKS
CHATTANOOGA    CLOUDY    75  58  55 S8        29.98F
$$

SKY/WX REPORTED AS FAIR MEANS FEW OR NO CLOUDS BELOW
12 THOUSAND FEET.




USA.gov is the U.S. government's official web portal to all federal, state and local government web resources and services.